Time,TemperatureF,DewpointF,PressureIn,WindDirection,WindDirectionDegrees,WindSpeedMPH,WindSpeedGustMPH,Humidity,HourlyPrecipIn,Conditions,Clouds,dailyrainin,SoftwareType,DateUTC
2013-03-23 00:04:00,33.6,-13.5,24.92,South,189,10.0,14.8,12,0.00,,,-99.99,FreeWX 2.04,2013-03-23 06:04:00,
2013-03-23 00:09:00,33.4,-13.7,24.92,South,183,10.0,13.0,12,0.00,,,-99.99,FreeWX 2.04,2013-03-23 06:09:00,
2013-03-23 00:14:00,33.4,-13.7,24.92,South,180,8.0,11.0,12,0.00,,,-99.99,FreeWX 2.04,2013-03-23 06:14:00,
2013-03-23 00:19:00,33.3,-13.7,24.92,South,183,8.0,10.5,12,0.00,,,-99.99,FreeWX 2.04,2013-03-23 06:19:00,
2013-03-23 00:24:00,33.3,-13.7,24.92,South,187,8.0,10.5,12,0.00,,,-99.99,FreeWX 2.04,2013-03-23 06:24:00,
2013-03-23 00:29:00,33.1,-13.9,24.92,South,187,8.0,12.1,12,0.00,,,-99.99,FreeWX 2.04,2013-03-23 06:29:00,
2013-03-23 00:34:00,33.1,-13.9,24.92,South,186,9.0,13.4,12,0.00,,,-99.99,FreeWX 2.04,2013-03-23 06:34:00,
2013-03-23 00:39:00,32.9,-14.1,24.92,South,184,10.0,13.0,12,0.00,,,-99.99,FreeWX 2.04,2013-03-23 06:39:00,
2013-03-23 00:44:00,33.1,-13.9,24.92,South,177,9.0,13.4,12,0.00,,,-99.99,FreeWX 2.04,2013-03-23 06:44:00,
2013-03-23 00:49:00,33.1,-13.9,24.92,South,173,9.0,13.4,12,0.00,,,-99.99,FreeWX 2.04,2013-03-23 06:49:00,
2013-03-23 00:54:00,32.9,-14.1,24.92,South,174,9.0,14.3,12,0.00,,,-99.99,FreeWX 2.04,2013-03-23 06:54:00,
2013-03-23 00:59:00,32.9,-12.5,24.92,South,172,10.0,14.8,13,0.00,,,-99.99,FreeWX 2.04,2013-03-23 06:59:00,
2013-03-23 01:04:00,32.7,-12.6,24.92,South,171,9.0,12.5,13,0.00,,,-99.99,FreeWX 2.04,2013-03-23 07:04:00,
2013-03-23 01:09:00,32.5,-12.8,24.89,South,171,8.0,10.5,13,0.00,,,-99.99,FreeWX 2.04,2013-03-23 07:09:00,
2013-03-23 01:14:00,32.7,-12.6,24.89,SSE,168,8.0,15.2,13,0.00,,,-99.99,FreeWX 2.04,2013-03-23 07:14:00,
2013-03-23 01:19:00,32.7,-12.6,24.89,SSE,154,8.0,11.6,13,0.00,,,-99.99,FreeWX 2.04,2013-03-23 07:19:00,
2013-03-23 01:24:00,32.5,-12.8,24.92,SE,143,8.0,10.1,13,0.00,,,-99.99,FreeWX 2.04,2013-03-23 07:24:00,
2013-03-23 01:29:00,32.5,-12.8,24.92,SE,142,7.0,11.2,13,0.00,,,-99.99,FreeWX 2.04,2013-03-23 07:29:00,
2013-03-23 01:34:00,32.4,-13.0,24.92,SSE,148,7.0,9.2,13,0.00,,,-99.99,FreeWX 2.04,2013-03-23 07:34:00,
2013-03-23 01:39:00,32.0,-13.2,24.89,SSE,160,6.0,7.8,13,0.00,,,-99.99,FreeWX 2.04,2013-03-23 07:39:00,
2013-03-23 01:44:00,32.0,-13.2,24.89,SSE,160,6.0,9.2,13,0.00,,,-99.99,FreeWX 2.04,2013-03-23 07:44:00,
2013-03-23 01:49:00,31.8,-13.4,24.89,SSE,161,6.0,8.3,13,0.00,,,-99.99,FreeWX 2.04,2013-03-23 07:49:00,
2013-03-23 01:54:00,31.3,-13.7,24.89,SSE,166,5.0,10.1,13,0.00,,,-99.99,FreeWX 2.04,2013-03-23 07:54:00,
2013-03-23 01:59:00,31.5,-13.7,24.89,SSE,166,6.0,11.2,13,0.00,,,-99.99,FreeWX 2.04,2013-03-23 07:59:00,
2013-03-23 02:04:00,31.5,-13.7,24.89,SSE,162,7.0,11.2,13,0.00,,,-99.99,FreeWX 2.04,2013-03-23 08:04:00,
2013-03-23 02:09:00,31.3,-13.7,24.92,SSE,158,8.0,11.6,13,0.00,,,-99.99,FreeWX 2.04,2013-03-23 08:09:00,
2013-03-23 02:14:00,31.3,-13.7,24.92,SSE,154,8.0,11.2,13,0.00,,,-99.99,FreeWX 2.04,2013-03-23 08:14:00,
2013-03-23 02:19:00,31.1,-13.9,24.92,SSE,150,8.0,11.2,13,0.00,,,-99.99,FreeWX 2.04,2013-03-23 08:19:00,
2013-03-23 02:24:00,30.9,-14.1,24.89,SE,145,8.0,11.6,13,0.00,,,-99.99,FreeWX 2.04,2013-03-23 08:24:00,
2013-03-23 02:29:00,30.7,-14.3,24.89,SSE,154,7.0,9.6,13,0.00,,,-99.99,FreeWX 2.04,2013-03-23 08:29:00,
2013-03-23 02:34:00,30.4,-14.4,24.89,South,170,6.0,10.1,13,0.00,,,-99.99,FreeWX 2.04,2013-03-23 08:34:00,
2013-03-23 02:39:00,29.8,-15.0,24.92,South,172,7.0,10.5,13,0.00,,,-99.99,FreeWX 2.04,2013-03-23 08:39:00,
2013-03-23 02:44:00,29.8,-15.0,24.92,SSE,168,7.0,12.5,13,0.00,,,-99.99,FreeWX 2.04,2013-03-23 08:44:00,
2013-03-23 02:49:00,29.8,-15.0,24.92,SSE,164,9.0,15.4,13,0.00,,,-99.99,FreeWX 2.04,2013-03-23 08:49:00,
2013-03-23 02:54:00,29.7,-15.2,24.89,SSE,160,10.0,14.8,13,0.00,,,-99.99,FreeWX 2.04,2013-03-23 08:54:00,
2013-03-23 02:59:00,29.3,-15.3,24.89,SSE,161,9.0,11.6,13,0.00,,,-99.99,FreeWX 2.04,2013-03-23 08:59:00,
2013-03-23 03:04:00,28.9,-15.7,24.89,SSE,168,8.0,11.2,13,0.00,,,-99.99,FreeWX 2.04,2013-03-23 09:04:00,
2013-03-23 03:09:00,28.8,-15.9,24.89,South,174,8.0,11.2,13,0.00,,,-99.99,FreeWX 2.04,2013-03-23 09:09:00,
2013-03-23 03:14:00,28.4,-16.1,24.89,South,184,10.0,16.3,13,0.00,,,-99.99,FreeWX 2.04,2013-03-23 09:14:00,
2013-03-23 03:19:00,28.2,-16.2,24.89,South,191,12.0,16.8,13,0.00,,,-99.99,FreeWX 2.04,2013-03-23 09:19:00,
2013-03-23 03:24:00,28.6,-15.9,24.89,South,190,12.0,18.6,13,0.00,,,-99.99,FreeWX 2.04,2013-03-23 09:24:00,
2013-03-23 03:29:00,28.4,-16.1,24.89,South,178,11.0,16.3,13,0.00,,,-99.99,FreeWX 2.04,2013-03-23 09:29:00,
2013-03-23 03:34:00,28.6,-15.9,24.89,SSE,168,10.0,15.9,13,0.00,,,-99.99,FreeWX 2.04,2013-03-23 09:34:00,
2013-03-23 03:39:00,28.2,-16.2,24.89,South,169,10.0,15.9,13,0.00,,,-99.99,FreeWX 2.04,2013-03-23 09:39:00,
2013-03-23 03:44:00,28.0,-16.4,24.89,South,174,10.0,15.4,13,0.00,,,-99.99,FreeWX 2.04,2013-03-23 09:44:00,
2013-03-23 03:49:00,27.7,-16.6,24.89,South,182,9.0,12.5,13,0.00,,,-99.99,FreeWX 2.04,2013-03-23 09:49:00,
2013-03-23 03:54:00,27.5,-15.3,24.89,South,191,7.0,10.5,14,0.00,,,-99.99,FreeWX 2.04,2013-03-23 09:54:00,
2013-03-23 03:59:00,27.1,-15.7,24.89,SSW,192,7.0,11.2,14,0.00,,,-99.99,FreeWX 2.04,2013-03-23 09:59:00,
2013-03-23 04:04:00,27.3,-15.5,24.89,South,180,7.0,9.6,14,0.00,,,-99.99,FreeWX 2.04,2013-03-23 10:04:00,
2013-03-23 04:09:00,27.3,-15.5,24.89,South,169,7.0,13.4,14,0.00,,,-99.99,FreeWX 2.04,2013-03-23 10:09:00,
2013-03-23 04:14:00,27.3,-15.5,24.89,South,173,8.0,11.6,14,0.00,,,-99.99,FreeWX 2.04,2013-03-23 10:14:00,
2013-03-23 04:19:00,27.7,-16.6,24.89,South,174,8.0,11.6,13,0.00,,,-99.99,FreeWX 2.04,2013-03-23 10:19:00,
2013-03-23 04:24:00,27.5,-15.3,24.89,SSE,166,8.0,13.9,14,0.00,,,-99.99,FreeWX 2.04,2013-03-23 10:24:00,
2013-03-23 04:29:00,27.3,-15.5,24.89,SSE,161,8.0,12.5,14,0.00,,,-99.99,FreeWX 2.04,2013-03-23 10:29:00,
2013-03-23 04:34:00,27.3,-15.5,24.89,SSE,159,8.0,10.1,14,0.00,,,-99.99,FreeWX 2.04,2013-03-23 10:34:00,
2013-03-23 04:39:00,27.1,-15.7,24.92,SSE,166,7.0,11.6,14,0.00,,,-99.99,FreeWX 2.04,2013-03-23 10:39:00,
2013-03-23 04:44:00,27.0,-15.9,24.92,South,180,8.0,11.6,14,0.00,,,-99.99,FreeWX 2.04,2013-03-23 10:44:00,
2013-03-23 04:49:00,26.6,-16.1,24.92,South,185,8.0,11.0,14,0.00,,,-99.99,FreeWX 2.04,2013-03-23 10:49:00,
2013-03-23 04:55:00,26.2,-16.4,24.92,South,178,8.0,10.5,14,0.00,,,-99.99,FreeWX 2.04,2013-03-23 10:55:00,
2013-03-23 05:00:00,26.2,-16.4,24.92,SSE,168,7.0,10.5,14,0.00,,,-99.99,FreeWX 2.04,2013-03-23 11:00:00,
2013-03-23 05:05:00,26.1,-16.6,24.92,SSE,154,7.0,10.1,14,0.00,,,-99.99,FreeWX 2.04,2013-03-23 11:05:00,
2013-03-23 05:10:00,26.1,-16.6,24.92,SSE,157,7.0,10.1,14,0.00,,,-99.99,FreeWX 2.04,2013-03-23 11:10:00,
2013-03-23 05:15:00,26.2,-16.4,24.92,SSE,164,7.0,13.9,14,0.00,,,-99.99,FreeWX 2.04,2013-03-23 11:15:00,
2013-03-23 05:20:00,27.0,-15.9,24.92,SE,145,8.0,14.3,14,0.00,,,-99.99,FreeWX 2.04,2013-03-23 11:20:00,
2013-03-23 05:25:00,27.1,-15.7,24.92,SE,131,8.0,12.5,14,0.00,,,-99.99,FreeWX 2.04,2013-03-23 11:25:00,
2013-03-23 05:30:00,27.1,-15.7,24.92,SE,128,8.0,13.9,14,0.00,,,-99.99,FreeWX 2.04,2013-03-23 11:30:00,
2013-03-23 05:35:00,27.0,-15.9,24.92,SE,129,8.0,13.4,14,0.00,,,-99.99,FreeWX 2.04,2013-03-23 11:35:00,
2013-03-23 05:40:00,27.0,-15.9,24.92,SE,130,8.0,13.9,14,0.00,,,-99.99,FreeWX 2.04,2013-03-23 11:40:00,
2013-03-23 05:45:00,26.8,-15.9,24.92,SE,125,8.0,13.0,14,0.00,,,-99.99,FreeWX 2.04,2013-03-23 11:45:00,
2013-03-23 05:50:00,27.0,-15.9,24.92,ESE,120,8.0,11.0,14,0.00,,,-99.99,FreeWX 2.04,2013-03-23 11:50:00,
2013-03-23 05:55:00,26.4,-16.2,24.92,SE,124,8.0,12.1,14,0.00,,,-99.99,FreeWX 2.04,2013-03-23 11:55:00,
2013-03-23 06:00:00,26.2,-16.4,24.92,SE,132,8.0,15.2,14,0.00,,,-99.99,FreeWX 2.04,2013-03-23 12:00:00,
2013-03-23 06:10:00,25.9,-16.6,24.92,SE,145,7.0,9.6,14,0.00,,,-99.99,FreeWX 2.04,2013-03-23 12:10:00,
2013-03-23 06:15:00,26.2,-16.4,24.92,SE,135,7.0,13.9,14,0.00,,,-99.99,FreeWX 2.04,2013-03-23 12:15:00,
2013-03-23 06:20:00,26.6,-16.1,24.92,SE,128,9.0,15.2,14,0.00,,,-99.99,FreeWX 2.04,2013-03-23 12:20:00,
2013-03-23 06:25:00,26.6,-16.1,24.92,SE,128,9.0,13.4,14,0.00,,,-99.99,FreeWX 2.04,2013-03-23 12:25:00,
2013-03-23 06:30:00,26.4,-16.2,24.92,SE,132,8.0,13.0,14,0.00,,,-99.99,FreeWX 2.04,2013-03-23 12:30:00,
2013-03-23 06:35:00,26.6,-16.1,24.92,SE,134,8.0,13.9,14,0.00,,,-99.99,FreeWX 2.04,2013-03-23 12:35:00,
2013-03-23 06:40:00,26.6,-16.1,24.92,SE,136,8.0,13.0,14,0.00,,,-99.99,FreeWX 2.04,2013-03-23 12:40:00,
2013-03-23 06:45:00,26.8,-15.9,24.92,SE,145,8.0,11.6,14,0.00,,,-99.99,FreeWX 2.04,2013-03-23 12:45:00,
2013-03-23 06:50:00,26.8,-15.9,24.92,SE,146,8.0,12.5,14,0.00,,,-99.99,FreeWX 2.04,2013-03-23 12:50:00,
2013-03-23 06:55:00,27.0,-15.9,24.92,SE,142,8.0,12.5,14,0.00,,,-99.99,FreeWX 2.04,2013-03-23 12:55:00,
2013-03-23 07:00:00,27.0,-15.9,24.92,SE,143,9.0,13.0,14,0.00,,,-99.99,FreeWX 2.04,2013-03-23 13:00:00,
2013-03-23 07:05:00,27.0,-13.2,24.92,SE,146,8.0,12.1,16,0.00,,,-99.99,FreeWX 2.04,2013-03-23 13:05:00,
2013-03-23 07:10:00,26.8,-13.4,24.92,SSE,154,8.0,13.0,16,0.00,,,-99.99,FreeWX 2.04,2013-03-23 13:10:00,
2013-03-23 07:15:00,26.8,-13.4,24.92,SSE,158,9.0,14.8,16,0.00,,,-99.99,FreeWX 2.04,2013-03-23 13:15:00,
2013-03-23 07:20:00,27.0,-13.2,24.95,SSE,158,9.0,13.4,16,0.00,,,-99.99,FreeWX 2.04,2013-03-23 13:20:00,
2013-03-23 07:25:00,27.0,-13.2,24.95,SSE,164,9.0,13.0,16,0.00,,,-99.99,FreeWX 2.04,2013-03-23 13:25:00,
2013-03-23 07:30:00,27.0,-9.8,24.95,SSE,166,10.0,14.8,19,0.00,,,-99.99,FreeWX 2.04,2013-03-23 13:30:00,
2013-03-23 07:35:00,27.0,-9.8,24.95,South,169,10.0,15.4,19,0.00,,,-99.99,FreeWX 2.04,2013-03-23 13:35:00,
2013-03-23 07:40:00,26.8,-9.9,24.95,South,180,9.0,13.4,19,0.00,,,-99.99,FreeWX 2.04,2013-03-23 13:40:00,
2013-03-23 07:45:00,26.6,-10.1,24.95,South,189,10.0,12.5,19,0.00,,,-99.99,FreeWX 2.04,2013-03-23 13:45:00,
2013-03-23 07:50:00,26.4,-10.1,24.95,South,189,10.0,12.5,19,0.00,,,-99.99,FreeWX 2.04,2013-03-23 13:50:00,
2013-03-23 07:55:00,26.6,-10.1,24.95,SSW,193,10.0,13.4,19,0.00,,,-99.99,FreeWX 2.04,2013-03-23 13:55:00,
2013-03-23 08:00:00,26.6,-8.0,24.95,SSW,195,10.0,13.9,21,0.00,,,-99.99,FreeWX 2.04,2013-03-23 14:00:00,
2013-03-23 08:05:00,26.6,-8.0,24.95,South,191,9.0,12.5,21,0.00,,,-99.99,FreeWX 2.04,2013-03-23 14:05:00,
2013-03-23 08:11:00,26.6,-5.3,24.95,South,190,8.0,11.2,24,0.00,,,-99.99,FreeWX 2.04,2013-03-23 14:11:00,
2013-03-23 08:16:00,26.6,-5.3,24.95,South,186,8.0,10.5,24,0.00,,,-99.99,FreeWX 2.04,2013-03-23 14:16:00,
2013-03-23 08:21:00,26.8,-3.5,24.95,South,182,7.0,9.6,26,0.00,,,-99.99,FreeWX 2.04,2013-03-23 14:21:00,
2013-03-23 08:26:00,26.8,-3.5,24.95,South,185,8.0,10.1,26,0.00,,,-99.99,FreeWX 2.04,2013-03-23 14:26:00,
2013-03-23 08:31:00,27.0,-4.9,24.95,SSW,193,8.0,11.2,24,0.00,,,-99.99,FreeWX 2.04,2013-03-23 14:31:00,
2013-03-23 08:36:00,27.0,-4.9,24.95,SSW,199,8.0,11.2,24,0.00,,,-99.99,FreeWX 2.04,2013-03-23 14:36:00,
2013-03-23 08:41:00,27.1,-3.1,24.95,SSW,200,8.0,11.0,26,0.00,,,-99.99,FreeWX 2.04,2013-03-23 14:41:00,
2013-03-23 08:46:00,27.1,-3.1,24.95,SSW,201,7.0,10.1,26,0.00,,,-99.99,FreeWX 2.04,2013-03-23 14:46:00,
2013-03-23 08:51:00,27.1,-4.7,24.98,SSW,202,8.0,11.2,24,0.00,,,-99.99,FreeWX 2.04,2013-03-23 14:51:00,
2013-03-23 08:56:00,27.1,-4.7,24.98,SSW,203,8.0,11.0,24,0.00,,,-99.99,FreeWX 2.04,2013-03-23 14:56:00,
2013-03-23 09:01:00,27.3,-4.7,24.98,SSW,202,8.0,10.1,24,0.00,,,-99.99,FreeWX 2.04,2013-03-23 15:01:00,
2013-03-23 09:06:00,27.3,-4.7,24.98,SSW,199,8.0,10.5,24,0.00,,,-99.99,FreeWX 2.04,2013-03-23 15:06:00,
2013-03-23 09:21:00,28.0,-4.9,24.98,SSW,197,7.0,11.0,23,0.00,,,-99.99,FreeWX 2.04,2013-03-23 15:21:00,
2013-03-23 09:27:00,28.4,-6.5,24.98,SSW,192,8.0,11.6,21,0.00,,,-99.99,FreeWX 2.04,2013-03-23 15:27:00,
2013-03-23 09:32:00,28.4,-6.5,24.98,SSW,194,8.0,11.2,21,0.00,,,-99.99,FreeWX 2.04,2013-03-23 15:32:00,
2013-03-23 09:37:00,28.4,-6.5,24.98,SSW,202,8.0,13.4,21,0.00,,,-99.99,FreeWX 2.04,2013-03-23 15:37:00,
2013-03-23 09:42:00,28.8,-6.2,24.98,SSW,201,8.0,10.5,21,0.00,,,-99.99,FreeWX 2.04,2013-03-23 15:42:00,
2013-03-23 09:47:00,28.9,-9.2,24.98,SSW,199,8.0,11.6,18,0.00,,,-99.99,FreeWX 2.04,2013-03-23 15:47:00,
2013-03-23 09:52:00,29.1,-9.0,24.98,SSW,197,9.0,11.6,18,0.00,,,-99.99,FreeWX 2.04,2013-03-23 15:52:00,
2013-03-23 09:57:00,29.3,-8.9,24.98,South,183,9.0,12.1,18,0.00,,,-99.99,FreeWX 2.04,2013-03-23 15:57:00,
2013-03-23 10:02:00,29.5,-8.7,24.98,SSE,167,8.0,11.6,18,0.00,,,-99.99,FreeWX 2.04,2013-03-23 16:02:00,
2013-03-23 10:07:00,30.0,-8.3,24.98,South,178,9.0,14.8,18,0.00,,,-99.99,FreeWX 2.04,2013-03-23 16:07:00,
2013-03-23 10:12:00,30.4,-11.7,24.98,SSW,193,10.0,15.4,15,0.00,,,-99.99,FreeWX 2.04,2013-03-23 16:12:00,
2013-03-23 10:17:00,30.4,-11.7,24.98,South,191,10.0,13.9,15,0.00,,,-99.99,FreeWX 2.04,2013-03-23 16:17:00,
2013-03-23 10:22:00,30.4,-11.7,24.98,South,175,9.0,14.8,15,0.00,,,-99.99,FreeWX 2.04,2013-03-23 16:22:00,
2013-03-23 10:27:00,31.3,-11.0,24.98,SSE,168,10.0,16.3,15,0.00,,,-99.99,FreeWX 2.04,2013-03-23 16:27:00,
2013-03-23 10:32:00,30.9,-11.2,24.98,SSE,165,10.0,14.8,15,0.00,,,-99.99,FreeWX 2.04,2013-03-23 16:32:00,
2013-03-23 10:37:00,31.3,-11.0,25.01,SSE,162,10.0,18.1,15,0.00,,,-99.99,FreeWX 2.04,2013-03-23 16:37:00,
2013-03-23 10:42:00,31.3,-11.0,25.01,SSE,164,11.0,17.7,15,0.00,,,-99.99,FreeWX 2.04,2013-03-23 16:42:00,
2013-03-23 10:47:00,31.5,-10.8,25.01,SSE,165,11.0,16.8,15,0.00,,,-99.99,FreeWX 2.04,2013-03-23 16:47:00,
2013-03-23 10:52:00,31.6,-10.7,25.01,South,170,11.0,15.9,15,0.00,,,-99.99,FreeWX 2.04,2013-03-23 16:52:00,
2013-03-23 10:57:00,32.0,-10.3,25.01,South,178,11.0,16.8,15,0.00,,,-99.99,FreeWX 2.04,2013-03-23 16:57:00,
2013-03-23 11:03:00,32.5,-9.9,25.01,South,180,11.0,13.9,15,0.00,,,-99.99,FreeWX 2.04,2013-03-23 17:03:00,
2013-03-23 11:08:00,31.6,-10.7,25.01,SSE,168,11.0,18.1,15,0.00,,,-99.99,FreeWX 2.04,2013-03-23 17:08:00,
2013-03-23 11:13:00,32.7,-9.8,25.01,SSE,168,13.0,18.6,15,0.00,,,-99.99,FreeWX 2.04,2013-03-23 17:13:00,
2013-03-23 11:18:00,33.1,-9.4,25.01,South,174,14.0,25.7,15,0.00,,,-99.99,FreeWX 2.04,2013-03-23 17:18:00,
2013-03-23 11:23:00,33.1,-9.4,25.01,South,178,16.0,22.4,15,0.00,,,-99.99,FreeWX 2.04,2013-03-23 17:23:00,
2013-03-23 11:28:00,33.8,-8.9,25.01,South,182,16.0,23.3,15,0.00,,,-99.99,FreeWX 2.04,2013-03-23 17:28:00,
2013-03-23 11:33:00,33.6,-9.0,25.01,South,184,14.0,19.5,15,0.00,,,-99.99,FreeWX 2.04,2013-03-23 17:33:00,
2013-03-23 11:38:00,34.5,-8.3,25.01,South,187,14.0,21.5,15,0.00,,,-99.99,FreeWX 2.04,2013-03-23 17:38:00,
2013-03-23 11:43:00,33.8,-8.9,25.01,South,179,15.0,24.2,15,0.00,,,-99.99,FreeWX 2.04,2013-03-23 17:43:00,
2013-03-23 11:48:00,35.4,-9.0,25.01,South,170,14.0,19.0,14,0.00,,,-99.99,FreeWX 2.04,2013-03-23 17:48:00,
2013-03-23 11:53:00,33.6,-9.0,25.01,South,169,15.0,22.8,15,0.00,,,-99.99,FreeWX 2.04,2013-03-23 17:53:00,
2013-03-23 11:58:00,32.7,-9.8,25.01,South,170,15.0,20.6,15,0.00,,,-99.99,FreeWX 2.04,2013-03-23 17:58:00,
2013-03-23 12:08:00,33.6,-9.0,25.01,South,187,15.0,24.8,15,0.00,,,-99.99,FreeWX 2.04,2013-03-23 18:08:00,
2013-03-23 12:13:00,35.1,-9.2,25.01,South,181,16.0,22.4,14,0.00,,,-99.99,FreeWX 2.04,2013-03-23 18:13:00,
2013-03-23 12:18:00,33.3,-9.4,25.01,South,177,16.0,22.8,15,0.00,,,-99.99,FreeWX 2.04,2013-03-23 18:18:00,
2013-03-23 12:23:00,32.7,-9.8,25.01,South,174,15.0,20.1,15,0.00,,,-99.99,FreeWX 2.04,2013-03-23 18:23:00,
2013-03-23 12:28:00,31.5,-7.1,25.01,South,185,17.0,28.4,18,0.00,,,-99.99,FreeWX 2.04,2013-03-23 18:28:00,
2013-03-23 12:33:00,31.8,-4.5,25.01,South,191,19.0,24.4,20,0.00,,,-99.99,FreeWX 2.04,2013-03-23 18:33:00,
2013-03-23 12:38:00,32.0,-4.5,25.01,SSW,197,17.0,22.8,20,0.00,,,-99.99,FreeWX 2.04,2013-03-23 18:38:00,
2013-03-23 12:43:00,33.6,-3.1,25.01,SSW,200,16.0,20.1,20,0.00,,,-99.99,FreeWX 2.04,2013-03-23 18:43:00,
2013-03-23 12:48:00,33.8,-0.9,25.01,SSW,195,15.0,20.1,22,0.00,,,-99.99,FreeWX 2.04,2013-03-23 18:48:00,
2013-03-23 12:53:00,34.3,-0.6,25.01,South,187,15.0,24.8,22,0.00,,,-99.99,FreeWX 2.04,2013-03-23 18:53:00,
2013-03-23 12:58:00,34.2,-0.6,25.01,South,184,14.0,19.9,22,0.00,,,-99.99,FreeWX 2.04,2013-03-23 18:58:00,
2013-03-23 13:03:00,35.2,-2.9,25.01,South,181,14.0,21.9,19,0.00,,,-99.99,FreeWX 2.04,2013-03-23 19:03:00,
2013-03-23 13:08:00,36.3,-2.0,25.01,South,180,14.0,18.6,19,0.00,,,-99.99,FreeWX 2.04,2013-03-23 19:08:00,
2013-03-23 13:13:00,34.9,-9.4,25.01,South,181,15.0,25.3,14,0.00,,,-99.99,FreeWX 2.04,2013-03-23 19:13:00,
2013-03-23 13:18:00,35.4,-5.1,25.01,South,181,17.0,21.9,17,0.00,,,-99.99,FreeWX 2.04,2013-03-23 19:18:00,
2013-03-23 13:23:00,36.0,-4.5,25.01,South,185,16.0,20.1,17,0.00,,,-99.99,FreeWX 2.04,2013-03-23 19:23:00,
2013-03-23 13:29:00,34.9,-3.1,25.01,South,176,14.0,19.5,19,0.00,,,-99.99,FreeWX 2.04,2013-03-23 19:29:00,
2013-03-23 13:34:00,35.8,-2.4,25.01,SSE,163,15.0,21.5,19,0.00,,,-99.99,FreeWX 2.04,2013-03-23 19:34:00,
2013-03-23 13:39:00,34.9,-3.1,25.01,SSE,158,17.0,25.7,19,0.00,,,-99.99,FreeWX 2.04,2013-03-23 19:39:00,
2013-03-23 13:44:00,36.0,-2.2,25.01,SSE,156,17.0,24.2,19,0.00,,,-99.99,FreeWX 2.04,2013-03-23 19:44:00,
2013-03-23 13:49:00,36.9,-5.1,25.01,SSE,159,14.0,18.6,16,0.00,,,-99.99,FreeWX 2.04,2013-03-23 19:49:00,
2013-03-23 13:54:00,36.7,-8.0,25.04,SSE,164,14.0,22.4,14,0.00,,,-99.99,FreeWX 2.04,2013-03-23 19:54:00,
2013-03-23 13:59:00,34.0,-8.7,25.04,SSE,159,14.0,19.9,15,0.00,,,-99.99,FreeWX 2.04,2013-03-23 19:59:00,
2013-03-23 14:04:00,36.1,-8.3,25.04,SSE,164,13.0,23.7,14,0.00,,,-99.99,FreeWX 2.04,2013-03-23 20:04:00,
2013-03-23 14:09:00,35.2,-9.0,25.01,South,174,14.0,20.6,14,0.00,,,-99.99,FreeWX 2.04,2013-03-23 20:09:00,
2013-03-23 14:14:00,35.1,-9.2,25.01,South,174,16.0,28.0,14,0.00,,,-99.99,FreeWX 2.04,2013-03-23 20:14:00,
2013-03-23 14:19:00,35.4,-9.0,25.01,South,185,17.0,23.3,14,0.00,,,-99.99,FreeWX 2.04,2013-03-23 20:19:00,
2013-03-23 14:24:00,35.8,-8.7,25.01,SSW,196,16.0,21.9,14,0.00,,,-99.99,FreeWX 2.04,2013-03-23 20:24:00,
2013-03-23 14:29:00,35.8,-8.7,25.01,SSW,198,16.0,23.3,14,0.00,,,-99.99,FreeWX 2.04,2013-03-23 20:29:00,
2013-03-23 14:34:00,36.9,-12.6,25.01,South,189,16.0,20.1,11,0.00,,,-99.99,FreeWX 2.04,2013-03-23 20:34:00,
2013-03-23 14:39:00,35.4,-12.1,25.01,South,176,16.0,25.7,12,0.00,,,-99.99,FreeWX 2.04,2013-03-23 20:39:00,
2013-03-23 14:44:00,36.3,-11.4,25.01,South,176,17.0,24.2,12,0.00,,,-99.99,FreeWX 2.04,2013-03-23 20:44:00,
2013-03-23 14:49:00,37.2,-12.5,25.01,South,171,17.0,23.7,11,0.00,,,-99.99,FreeWX 2.04,2013-03-23 20:49:00,
2013-03-23 14:54:00,36.5,-11.2,25.01,South,175,18.0,25.7,12,0.00,,,-99.99,FreeWX 2.04,2013-03-23 20:54:00,
2013-03-23 14:59:00,37.4,-12.3,25.01,South,186,18.0,22.8,11,0.00,,,-99.99,FreeWX 2.04,2013-03-23 20:59:00,
2013-03-23 15:04:00,36.9,-12.6,25.01,South,182,17.0,24.4,11,0.00,,,-99.99,FreeWX 2.04,2013-03-23 21:04:00,
2013-03-23 15:09:00,37.8,-11.9,25.01,South,175,16.0,23.3,11,0.00,,,-99.99,FreeWX 2.04,2013-03-23 21:09:00,
2013-03-23 15:14:00,36.9,-12.6,25.01,South,180,15.0,23.3,11,0.00,,,-99.99,FreeWX 2.04,2013-03-23 21:14:00,
2013-03-23 15:19:00,37.4,-12.3,25.01,South,183,16.0,20.6,11,0.00,,,-99.99,FreeWX 2.04,2013-03-23 21:19:00,
2013-03-23 15:24:00,37.8,-11.9,25.04,South,188,16.0,27.5,11,0.00,,,-99.99,FreeWX 2.04,2013-03-23 21:24:00,
2013-03-23 15:29:00,38.1,-11.7,25.04,South,186,16.0,20.6,11,0.00,,,-99.99,FreeWX 2.04,2013-03-23 21:29:00,
2013-03-23 15:34:00,37.6,-12.1,25.04,South,174,15.0,22.8,11,0.00,,,-99.99,FreeWX 2.04,2013-03-23 21:34:00,
2013-03-23 15:39:00,36.3,-11.4,25.04,South,180,16.0,22.4,12,0.00,,,-99.99,FreeWX 2.04,2013-03-23 21:39:00,
2013-03-23 15:44:00,36.7,-12.8,25.04,South,183,16.0,24.8,11,0.00,,,-99.99,FreeWX 2.04,2013-03-23 21:44:00,
2013-03-23 15:49:00,36.5,-11.2,25.04,South,180,15.0,21.5,12,0.00,,,-99.99,FreeWX 2.04,2013-03-23 21:49:00,
2013-03-23 16:14:00,36.9,-12.6,25.04,South,183,15.0,20.6,11,0.00,,,-99.99,FreeWX 2.04,2013-03-23 22:14:00,
2013-03-23 16:23:00,37.0,-12.5,25.04,South,169,14.0,22.8,11,0.00,,,-99.99,FreeWX 2.04,2013-03-23 22:23:00,
2013-03-23 16:28:00,37.0,-12.5,25.04,South,172,16.0,25.3,11,0.00,,,-99.99,FreeWX 2.04,2013-03-23 22:28:00,
2013-03-23 16:33:00,37.0,-12.5,25.04,South,178,16.0,25.7,11,0.00,,,-99.99,FreeWX 2.04,2013-03-23 22:33:00,
2013-03-23 16:38:00,37.8,-11.9,25.04,South,176,14.0,19.0,11,0.00,,,-99.99,FreeWX 2.04,2013-03-23 22:38:00,
2013-03-23 16:43:00,37.9,-11.7,25.04,South,175,14.0,21.9,11,0.00,,,-99.99,FreeWX 2.04,2013-03-23 22:43:00,
2013-03-23 16:49:00,37.2,-12.5,25.04,South,191,14.0,19.9,11,0.00,,,-99.99,FreeWX 2.04,2013-03-23 22:49:00,
2013-03-23 16:54:00,37.9,-11.7,25.04,SSW,197,15.0,20.6,11,0.00,,,-99.99,FreeWX 2.04,2013-03-23 22:54:00,
2013-03-23 16:59:00,37.0,-12.5,25.04,SSW,194,15.0,21.0,11,0.00,,,-99.99,FreeWX 2.04,2013-03-23 22:59:00,
2013-03-23 17:04:00,37.0,-12.5,25.04,SSW,198,14.0,20.1,11,0.00,,,-99.99,FreeWX 2.04,2013-03-23 23:04:00,
2013-03-23 17:09:00,37.0,-12.5,25.04,SSW,198,14.0,18.6,11,0.00,,,-99.99,FreeWX 2.04,2013-03-23 23:09:00,
2013-03-23 17:14:00,37.0,-12.5,25.04,South,188,14.0,18.1,11,0.00,,,-99.99,FreeWX 2.04,2013-03-23 23:14:00,
2013-03-23 17:19:00,37.0,-12.5,25.04,South,182,13.0,21.9,11,0.00,,,-99.99,FreeWX 2.04,2013-03-23 23:19:00,
2013-03-23 17:24:00,36.3,-11.4,25.04,South,185,12.0,20.6,12,0.00,,,-99.99,FreeWX 2.04,2013-03-23 23:24:00,
2013-03-23 17:29:00,36.5,-13.0,25.04,South,190,13.0,18.1,11,0.00,,,-99.99,FreeWX 2.04,2013-03-23 23:29:00,
2013-03-23 17:34:00,36.1,-11.6,25.04,SSW,193,12.0,15.9,12,0.00,,,-99.99,FreeWX 2.04,2013-03-23 23:34:00,
2013-03-23 17:39:00,36.5,-13.0,25.04,SSW,194,11.0,15.4,11,0.00,,,-99.99,FreeWX 2.04,2013-03-23 23:39:00,
2013-03-23 17:44:00,35.6,-11.9,25.04,South,189,11.0,16.8,12,0.00,,,-99.99,FreeWX 2.04,2013-03-23 23:44:00,
2013-03-23 17:49:00,36.0,-11.6,25.04,South,182,11.0,13.4,12,0.00,,,-99.99,FreeWX 2.04,2013-03-23 23:49:00,
2013-03-23 17:54:00,36.0,-11.6,25.04,South,176,9.0,12.5,12,0.00,,,-99.99,FreeWX 2.04,2013-03-23 23:54:00,
2013-03-23 17:59:00,35.6,-11.9,25.04,South,173,8.0,13.0,12,0.00,,,-99.99,FreeWX 2.04,2013-03-23 23:59:00,
2013-03-23 18:04:00,36.7,-12.8,25.04,South,176,8.0,13.9,11,0.00,,,-99.99,FreeWX 2.04,2013-03-24 00:04:00,
2013-03-23 18:09:00,35.6,-11.9,25.04,South,173,9.0,13.0,12,0.00,,,-99.99,FreeWX 2.04,2013-03-24 00:09:00,
2013-03-23 18:14:00,35.6,-11.9,25.04,South,178,10.0,13.4,12,0.00,,,-99.99,FreeWX 2.04,2013-03-24 00:14:00,
2013-03-23 18:19:00,36.0,-11.6,25.04,South,185,8.0,11.0,12,0.00,,,-99.99,FreeWX 2.04,2013-03-24 00:19:00,
2013-03-23 18:24:00,36.1,-11.6,25.04,South,175,8.0,13.0,12,0.00,,,-99.99,FreeWX 2.04,2013-03-24 00:24:00,
2013-03-23 18:29:00,36.1,-11.6,25.04,South,180,8.0,11.2,12,0.00,,,-99.99,FreeWX 2.04,2013-03-24 00:29:00,
2013-03-23 18:34:00,35.6,-11.9,25.04,SW,214,7.0,11.2,12,0.00,,,-99.99,FreeWX 2.04,2013-03-24 00:34:00,
2013-03-23 18:39:00,35.1,-12.3,25.07,SW,233,8.0,12.1,12,0.00,,,-99.99,FreeWX 2.04,2013-03-24 00:39:00,
2013-03-23 18:44:00,35.1,-12.3,25.07,SW,235,9.0,13.0,12,0.00,,,-99.99,FreeWX 2.04,2013-03-24 00:44:00,
2013-03-23 18:49:00,34.9,-12.5,25.07,SW,235,9.0,13.4,12,0.00,,,-99.99,FreeWX 2.04,2013-03-24 00:49:00,
2013-03-23 18:54:00,34.7,-12.6,25.07,SW,223,8.0,10.5,12,0.00,,,-99.99,FreeWX 2.04,2013-03-24 00:54:00,
2013-03-23 18:59:00,34.7,-12.6,25.07,SSW,206,7.0,10.1,12,0.00,,,-99.99,FreeWX 2.04,2013-03-24 00:59:00,
2013-03-23 19:04:00,34.3,-13.0,25.07,SSW,205,6.0,8.3,12,0.00,,,-99.99,FreeWX 2.04,2013-03-24 01:04:00,
2013-03-23 19:09:00,34.2,-13.0,25.07,SSW,211,6.0,9.2,12,0.00,,,-99.99,FreeWX 2.04,2013-03-24 01:09:00,
2013-03-23 19:14:00,34.0,-13.2,25.07,SSW,209,7.0,9.6,12,0.00,,,-99.99,FreeWX 2.04,2013-03-24 01:14:00,
2013-03-23 19:19:00,34.0,-13.2,25.07,SSW,200,7.0,10.1,12,0.00,,,-99.99,FreeWX 2.04,2013-03-24 01:19:00,
2013-03-23 19:24:00,33.6,-13.5,25.07,South,189,6.0,7.8,12,0.00,,,-99.99,FreeWX 2.04,2013-03-24 01:24:00,
2013-03-23 19:29:00,33.1,-13.9,25.07,South,175,5.0,7.8,12,0.00,,,-99.99,FreeWX 2.04,2013-03-24 01:29:00,
2013-03-23 19:34:00,32.7,-12.6,25.07,SSE,165,5.0,6.3,13,0.00,,,-99.99,FreeWX 2.04,2013-03-24 01:34:00,
2013-03-23 19:39:00,32.2,-13.0,25.07,SSE,163,2.0,3.6,13,0.00,,,-99.99,FreeWX 2.04,2013-03-24 01:39:00,
2013-03-23 19:44:00,32.2,-13.0,25.07,SSE,163,2.0,4.9,13,0.00,,,-99.99,FreeWX 2.04,2013-03-24 01:44:00,
2013-03-23 19:49:00,32.2,-13.0,25.07,SSE,167,3.0,5.4,13,0.00,,,-99.99,FreeWX 2.04,2013-03-24 01:49:00,
2013-03-23 19:54:00,32.0,-13.2,25.07,South,175,4.0,4.9,13,0.00,,,-99.99,FreeWX 2.04,2013-03-24 01:54:00,
2013-03-23 19:59:00,31.8,-13.4,25.07,South,176,3.0,4.0,13,0.00,,,-99.99,FreeWX 2.04,2013-03-24 01:59:00,
2013-03-23 20:04:00,31.3,-13.7,25.07,South,172,2.0,4.5,13,0.00,,,-99.99,FreeWX 2.04,2013-03-24 02:04:00,
2013-03-23 20:09:00,30.4,-14.4,25.07,South,172,2.0,4.0,13,0.00,,,-99.99,FreeWX 2.04,2013-03-24 02:09:00,
2013-03-23 20:14:00,30.6,-14.4,25.07,South,172,2.0,4.0,13,0.00,,,-99.99,FreeWX 2.04,2013-03-24 02:14:00,
2013-03-23 20:19:00,30.7,-14.3,25.07,South,172,1.0,3.6,13,0.00,,,-99.99,FreeWX 2.04,2013-03-24 02:19:00,
2013-03-23 20:24:00,30.4,-14.4,25.10,North,-999,0.0,0.0,13,0.00,,,-99.99,FreeWX 2.04,2013-03-24 02:24:00,
2013-03-23 20:29:00,30.4,-14.4,25.10,North,-999,0.0,0.0,13,0.00,,,-99.99,FreeWX 2.04,2013-03-24 02:29:00,
2013-03-23 20:34:00,30.4,-14.4,25.10,North,-999,0.0,0.0,13,0.00,,,-99.99,FreeWX 2.04,2013-03-24 02:34:00,
2013-03-23 20:39:00,30.6,-14.4,25.10,North,-999,0.0,4.0,13,0.00,,,-99.99,FreeWX 2.04,2013-03-24 02:39:00,
2013-03-23 20:44:00,30.7,-14.3,25.10,SSE,168,2.0,4.0,13,0.00,,,-99.99,FreeWX 2.04,2013-03-24 02:44:00,
2013-03-23 20:49:00,30.4,-14.4,25.10,SSE,159,1.0,3.1,13,0.00,,,-99.99,FreeWX 2.04,2013-03-24 02:49:00,
2013-03-23 20:54:00,30.0,-14.8,25.10,North,-999,0.0,3.1,13,0.00,,,-99.99,FreeWX 2.04,2013-03-24 02:54:00,
2013-03-23 20:59:00,29.7,-15.2,25.10,North,-999,0.0,2.7,13,0.00,,,-99.99,FreeWX 2.04,2013-03-24 02:59:00,
2013-03-23 21:04:00,29.3,-15.3,25.10,North,-999,0.0,0.0,13,0.00,,,-99.99,FreeWX 2.04,2013-03-24 03:04:00,
2013-03-23 21:09:00,29.1,-15.5,25.10,North,-999,0.0,0.0,13,0.00,,,-99.99,FreeWX 2.04,2013-03-24 03:09:00,
2013-03-23 21:14:00,28.8,-15.9,25.10,North,-999,0.0,0.0,13,0.00,,,-99.99,FreeWX 2.04,2013-03-24 03:14:00,
2013-03-23 21:19:00,28.4,-16.1,25.10,North,-999,0.0,0.0,13,0.00,,,-99.99,FreeWX 2.04,2013-03-24 03:19:00,
2013-03-23 21:24:00,28.0,-16.4,25.13,North,-999,0.0,0.0,13,0.00,,,-99.99,FreeWX 2.04,2013-03-24 03:24:00,
2013-03-23 21:29:00,27.7,-12.6,25.13,North,-999,0.0,0.0,16,0.00,,,-99.99,FreeWX 2.04,2013-03-24 03:29:00,
2013-03-23 21:34:00,27.5,-12.6,25.13,North,-999,0.0,0.0,16,0.00,,,-99.99,FreeWX 2.04,2013-03-24 03:34:00,
2013-03-23 21:39:00,28.0,-12.3,25.13,SSE,154,1.0,3.6,16,0.00,,,-99.99,FreeWX 2.04,2013-03-24 03:39:00,
2013-03-23 21:44:00,28.0,-12.3,25.13,SSE,154,2.0,4.0,16,0.00,,,-99.99,FreeWX 2.04,2013-03-24 03:44:00,
2013-03-23 21:49:00,27.7,-12.6,25.13,SSE,154,2.0,3.6,16,0.00,,,-99.99,FreeWX 2.04,2013-03-24 03:49:00,
2013-03-23 21:54:00,27.3,-12.8,25.13,SE,137,2.0,6.3,16,0.00,,,-99.99,FreeWX 2.04,2013-03-24 03:54:00,
2013-03-23 21:59:00,27.9,-12.5,25.13,East,101,4.0,5.4,16,0.00,,,-99.99,FreeWX 2.04,2013-03-24 03:59:00,
2013-03-23 22:05:00,28.2,-12.1,25.13,East,88,3.0,4.9,16,0.00,,,-99.99,FreeWX 2.04,2013-03-24 04:05:00,
2013-03-23 22:10:00,28.0,-12.3,25.13,East,87,1.0,3.1,16,0.00,,,-99.99,FreeWX 2.04,2013-03-24 04:10:00,
2013-03-23 22:15:00,28.0,-12.3,25.13,North,-999,0.0,2.7,16,0.00,,,-99.99,FreeWX 2.04,2013-03-24 04:15:00,
2013-03-23 22:20:00,27.9,-12.5,25.13,North,-999,0.0,3.6,16,0.00,,,-99.99,FreeWX 2.04,2013-03-24 04:20:00,
2013-03-23 22:25:00,27.9,-12.5,25.13,North,-999,0.0,3.6,16,0.00,,,-99.99,FreeWX 2.04,2013-03-24 04:25:00,
2013-03-23 22:30:00,27.3,-12.8,25.13,East,88,1.0,3.6,16,0.00,,,-99.99,FreeWX 2.04,2013-03-24 04:30:00,
2013-03-23 22:35:00,27.3,-12.8,25.13,East,88,2.0,5.4,16,0.00,,,-99.99,FreeWX 2.04,2013-03-24 04:35:00,
2013-03-23 22:40:00,27.3,-12.8,25.13,East,88,2.0,4.9,16,0.00,,,-99.99,FreeWX 2.04,2013-03-24 04:40:00,
2013-03-23 22:45:00,27.1,-13.0,25.13,North,-999,0.0,0.0,16,0.00,,,-99.99,FreeWX 2.04,2013-03-24 04:45:00,
2013-03-23 22:50:00,27.7,-12.6,25.13,North,-999,0.0,4.0,16,0.00,,,-99.99,FreeWX 2.04,2013-03-24 04:50:00,
2013-03-23 22:55:00,28.0,-12.3,25.13,East,87,2.0,5.4,16,0.00,,,-99.99,FreeWX 2.04,2013-03-24 04:55:00,
2013-03-23 23:00:00,28.4,-11.9,25.13,East,87,4.0,6.3,16,0.00,,,-99.99,FreeWX 2.04,2013-03-24 05:00:00,
2013-03-23 23:05:00,28.6,-11.9,25.13,East,88,4.0,5.8,16,0.00,,,-99.99,FreeWX 2.04,2013-03-24 05:05:00,
2013-03-23 23:10:00,28.8,-11.7,25.13,East,88,3.0,4.9,16,0.00,,,-99.99,FreeWX 2.04,2013-03-24 05:10:00,
2013-03-23 23:15:00,28.8,-11.7,25.13,East,88,1.0,3.6,16,0.00,,,-99.99,FreeWX 2.04,2013-03-24 05:15:00,
2013-03-23 23:20:00,28.8,-11.7,25.13,North,-999,0.0,3.6,16,0.00,,,-99.99,FreeWX 2.04,2013-03-24 05:20:00,
2013-03-23 23:25:00,28.4,-11.9,25.13,North,-999,0.0,2.7,16,0.00,,,-99.99,FreeWX 2.04,2013-03-24 05:25:00,
2013-03-23 23:30:00,28.2,-12.1,25.13,North,-999,0.0,3.1,16,0.00,,,-99.99,FreeWX 2.04,2013-03-24 05:30:00,
2013-03-23 23:35:00,28.6,-11.9,25.13,North,-999,0.0,3.6,16,0.00,,,-99.99,FreeWX 2.04,2013-03-24 05:35:00,
2013-03-23 23:40:00,28.0,-12.3,25.13,North,-999,0.0,0.0,16,0.00,,,-99.99,FreeWX 2.04,2013-03-24 05:40:00,
2013-03-23 23:45:00,28.0,-12.3,25.13,North,-999,0.0,0.0,16,0.00,,,-99.99,FreeWX 2.04,2013-03-24 05:45:00,
2013-03-23 23:50:00,28.0,-12.3,25.13,North,-999,0.0,3.6,16,0.00,,,-99.99,FreeWX 2.04,2013-03-24 05:50:00,
2013-03-23 23:55:00,28.2,-12.1,25.13,East,88,1.0,4.0,16,0.00,,,-99.99,FreeWX 2.04,2013-03-24 05:55:00,